Regional Weather Roundup
Issued by NWS

Home | Current Version | Previous Version | Graphics & Text | Print | Product List | Glossary On
Versions: 1 2 3 4 5 6 7 8 9 10 11 12 13 14 15 16 17 18 19 20 21 22 23 24 25 26 27 28 29 30 31 32 33 34 35 36 37 38 39 40 41 42 43 44 45 46 47 48 49 50
000
ASUS43 KLMK 052302
RWRKY
KENTUCKY REGIONAL WEATHER ROUNDUP
NATIONAL WEATHER SERVICE LOUISVILLE KY
700 PM EDT THU MAY 05 2016

NOTE "FAIR" INDICATES FEW OR NO CLOUDS BELOW 12,000 FEET
WITH NO SIGNIFICANT WEATHER AND/OR OBSTRUCTIONS TO VISIBILITY.

KYZ001>023-026-027-061>063-070>075-060000-
WESTERN AND SOUTH CENTRAL KENTUCKY

CITY           SKY/WX    TMP DP  RH WIND       PRES   REMARKS
PADUCAH        CLOUDY    60  43  53 NE13      29.98R
HENDERSON      SUNNY     61  45  55 NW10      29.95F
OWENSBORO      PTSUNNY   59  47  64 NW10      29.95S
HOPKINSVILLE   CLOUDY    56  43  61 NW10      29.96R
BOWLING GREEN  CLOUDY    57  43  59 N7        29.94R
GLASGOW        NOT AVBL
$$

KYZ024-025-028>034-038-045-046-053-060000-
NORTH CENTRAL KENTUCKY

CITY           SKY/WX    TMP DP  RH WIND       PRES   REMARKS
LOUISVILLE/SDF PTSUNNY   60  45  57 NW10      29.90F
LOUISVILLE/LOU PTSUNNY   58  45  62 NW5       29.90F
FORT KNOX      PTSUNNY   55  45  68 W8        29.90S
$$

KYZ035>037-039>044-047>052-055>060-089>105-060000-
NORTHEAST KENTUCKY

CITY           SKY/WX    TMP DP  RH WIND       PRES   REMARKS
LEXINGTON      CLOUDY    52  44  74 NW13      29.88S
COVINGTON      MOSUNNY   59  48  67 W6        29.86S
FRANKFORT      CLOUDY    52  44  74 NW5       29.88S
$$

KYZ054-064>069-076>088-106>120-060000-
SOUTHEAST KENTUCKY

CITY           SKY/WX    TMP DP  RH WIND       PRES   REMARKS
JACKSON        CLOUDY    51  40  65 NW7       29.83R
LONDON         CLOUDY    51  38  60 NW7       29.86R
SOMERSET       NOT AVBL
MIDDLESBORO    NOT AVBL
MONTICELLO     CLOUDY    54  41  61 N12       29.91R
$$





USA.gov is the U.S. government's official web portal to all federal, state and local government web resources and services.